Regional Weather Roundup
Issued by NWS State College, PA

Current Version | Previous Version | Text Only | Print | Product List | Glossary On
Versions: 1 2 3 4 5 6 7 8 9 10 11 12 13 14 15 16 17 18 19 20 21 22 23 24 25 26 27 28 29 30 31 32 33 34 35 36 37 38 39 40 41 42 43 44 45 46 47 48 49 50
000
ASUS41 KCTP 271810
RWRCTP

REGIONAL WEATHER ROUNDUP
NATIONAL WEATHER SERVICE STATE COLLEGE PA
200 PM EDT MON JUN 27 2016

Note: "fair" indicates few or no clouds below 12,000 feet with no
significant weather and/or obstructions to visibility.

* = STATION THAT DOES NOT REPORT PRECIPITATION /E.G. RAIN...SNOW...ETC/
    THUNDER OR FOG.

PAZ002>004-007>009-013>016-020>023-029>032-271900-
WESTERN PENNSYLVANIA

CITY           SKY/WX    TMP DP  RH WIND       PRES   REMARKS
ERIE           SUNNY     82  66  58 W9        29.97F
MEADVILLE      MOSUNNY   81  60  48 W12G17    30.02F
FRANKLIN*      SUNNY     84  61  45 W7        30.04S
NEW CASTLE     FAIR      85  59  41 W7        30.01F
BEAVER COUNTY  MOSUNNY   86  63  45 W3        30.03F
BUTLER*        MOSUNNY   84  64  51 W7        30.04F
PITTSBURGH INT PTSUNNY   85  61  44 W6        30.01F
PITTSBURGH     MOSUNNY   81  69  67 MISG      30.02F
INDIANA*       PTSUNNY   81  72  74 SW10      30.05F
LATROBE        MOSUNNY   79  72  78 SW12      30.04F
WASHINGTON CO* PTSUNNY   79  70  73 SW6       30.04F
$$

PAZ004>006-010>012-017>019-024>028-033>037-041-042-045-046-049>053-271900-
CENTRAL PENNSYLVANIA

CITY           SKY/WX    TMP DP  RH WIND       PRES   REMARKS
BRADFORD       MOSUNNY   79  59  50 W8G17     30.03F
DUBOIS         MOSUNNY   82  62  50 VRB7      30.02F
CLEARFIELD     MOSUNNY   83  67  58 SW8       30.01F
JOHNSTOWN      CLOUDY    75  65  70 SW7       30.07F
ALTOONA        CLOUDY    80  68  66 S7        30.04F
STATE COLLEGE  PTSUNNY   81  68  65 S9        30.02F
WILLIAMSPORT   CLOUDY    75  62  64 CALM      29.99F
SELINSGROVE    CLOUDY    75  68  78 CALM      30.01F
FT INDIANTOWN  DRIZZLE   77  66  69 SW8       30.01F
CAPITAL CITY   CLOUDY    79  68  69 SW6       30.01F
HARRISBURG     LGT RAIN  78  68  71 W3        30.00F
YORK           CLOUDY    80  67  64 W7        30.01F
$$

PAZ038>040-043-044-047-048-054-055-060>062-067>071-271900-
EASTERN PENNSYLVANIA

CITY           SKY/WX    TMP DP  RH WIND       PRES   REMARKS
SCRANTON       LGT RAIN  75  65  70 SW7G17    30.01F
MOUNT POCONO   CLOUDY    75  60  59 S13       30.06F
ALLENTOWN      PTSUNNY   85  60  42 S12G20    30.01F
QUAKERTOWN*    CLEAR     84  63  48 SW8       30.03F
READING        PTSUNNY   83  65  54 S10       30.00F
LANCASTER      MOSUNNY   81  65  58 S8        30.01F
COATESVILLE    CLEAR     81  66  61 VRB5      30.05F
POTTSTOWN      SUNNY     83  61  47 S12       30.04F
BLUE BELL      SUNNY     82  59  44 S8        30.03F
DOYLESTOWN     SUNNY     82  52  35 SW9G17    30.02F
WILLOW GROVE   NOT AVBL
NORTH PHILA    SUNNY     85  56  37 SW14G20   30.04F
PHILADELPHIA   MOSUNNY   83  59  44 S9        30.03F
$$



USA.gov is the U.S. government's official web portal to all federal, state and local government web resources and services.